STARLINK-32394, 61853

Orbit data source: Space-Track

STARLINK-32394, 61853 is a payload satellite owned by SpaceX/Seattle (US) in LEO that was launched on Thu, 07 Nov 2024 UTC via an FALCON 9 launch vehicle from the Air Force Eastern Test Range (AFETR). Payload-class satellites include a variety of spacecraft equipped with specific instruments for various scientific and technological missions. These include communications satellites like Starlink; space stations such as the ISS; scientific satellites like the Hubble; Earth observation satellites from companies like Planet Labs, Umbra, and HawkEye 360; GPS; miniature CubeSats for education and research; and military/defense satellites.

Loading next visibility...
Identifier
61853, 2024-202J
Orbit
LEO
Country
Flag of USUS
Related business
Manufacturer
SpaceX/Seattle
Mission
Operational Commercial Communications
Bus & Motor
STARLINK V2M, Unknown motor
Mass
730 kg wet, ~700 kg dry
Launch date (UTC)
2024-11-07 (2 years ago)
Launch vehicle
FALCON 9
Launch site
Air Force Eastern Test Range (AFETR)
Object type
Payload
Rocket body
Debris
Shape & HBR
Box + 2 Pan, 17.7 m
Radar Cross Section
33.884 m², Large (>1 m²)

Expand to show TLE details & history
Last TLE update: 13 hours ago

TLE from 13 hours ago
0 STARLINK-32394
1 61853U 24202J   26171.29941189  .00000469  00000-0  26563-4 0  9998
2 61853  43.0082  18.2316 0001928 268.5904  91.4727 15.27579787 91027
Epoch: 2026-06-20T07:11Z
TLE epoch observation values (Epoch: 2026-06-20T07:11:09.187Z)
Latitude
-0°
Longitude
1.92729°
Altitude
482.86 km
Speed
7.626 km/s
True Right ascension
01h 12m 55s
True Declination
0° 00' 00"
Sunlit
Object was in daylight at epoch
Visualization orbit readout
Latitude
Unknown
Longitude
Unknown
Altitude
Unknown
Speed
Unknown
Apparent Right ascension
Unknown
Apparent Declination
Unknown
Sunlit
N/A
Visualization observer readout
Local Sidereal Time
07:19:30
Azimuth
Unknown
Elevation
Unknown
Doppler factor
Unknown
Orbital elements
Apogee altitude
486.317 km
Perigee altitude
483.67 km
Semi-major axis
6,863.131 km
Eccentricity
0.00019
Inclination
43.0082°
RAAN
18.2316°
Arg. of periapsis
268.5904°
True anomaly
91.49479°
Mean anomaly
91.4727°
Eccentric anomaly
91.48374°
Mean motion
3.81733 °/min
Orbital period
94.31 mins
BSTAR
0.000026563
Loading maneuver chart data...
Computing Atmospheric mass density...
Loading historical data...
Loading historical data...
Loading historical data...
Loading historical data...
Loading historical data...
Loading historical data...
Loading historical data...

Documentation

Showing up to 5 results
|